sat.trackr.live / text

‹ back to catalog

QIANFAN-195

NORAD 69413 · 2026-125N

PAYLOAD ACTIVE UNKNOWN

§ Identity

Operator
Country
PRC
Launch date
2026-06-05
Launch site
WSC
Launch vehicle
Mass (kg)
RCS (m²)

External: N2YO · Heavens-Above · Gunter

§ Orbital elements

Epoch: 2026-09-20T03:18:51.596352Z

Period
106.59 min
Inclination
88.9900°
Eccentricity
0.0001929
Mean motion
13.51011841 rev/d
Perigee alt
1,067.1 km
Apogee alt
1,070.0 km
Semi-major
7,446.7 km
B*
4.0937e-5
RAAN
270.3314°
Arg perigee
89.1206°
Mean anomaly
271.0166°
Rev number
1,478

§ Raw data

QIANFAN-1951 69413U 26125N   26263.13809718  .00000038  00000+0  40937-4 0  99922 69413  88.9900 270.3314 0001929  89.1206 271.0166 13.51011841 14784

JSON: /api/v1/satellites/69413 · /tle

For live sub-satellite position, see the globe view (requires WebGL).

§ Visibility from observer

Set your observer location to see the next 7 days of passes ≥ 10°. The values pass through the URL so the page stays shareable.

No JS? Fill the form by hand. The geolocation button needs JavaScript.